Tracking 17780 objects as of 30-July-2016
HD Live streaming from Space Station
objects crossing your sky now

NADEZHDA 3

Track NADEZHDA 3 now!
10-day predictions
NADEZHDA 3 is classified as:


NORAD ID: 21152
Int'l Code: 1991-019A
Perigee: 960.1 km
Apogee: 1,023.2 km
Inclination: 82.9 °
Period: 104.8 minutes
Semi major axis: 7362 km
RCS: 2.4675 m2 (large)
Launch date: March 12, 1991
Source: Commonwealth of Independent States (former USSR) (CIS)
Launch site: PLESETSK MISSILE AND SPACE COMPLEX (PKMTR)
Your satellite tracking list
Your tracking list is empty





NASA's NSSDC Master Catalog

Two Line Element Set (TLE):
1 21152U 91019A   16211.29134397  .00000018  00000-0  31626-5 0  9992
2 21152  82.9274 100.7306 0042890  53.0629  86.5964 13.74206974272608
Source of the keplerian elements: AFSPC

N2YO: 1002